Change the Weather History Date:

Tuesday, November 23, 2010

  Actual Average Record
Temperature  
Mean Temperature 70 °F -  
Max Temperature 77 °F 79 °F 86 °F (1997)
Min Temperature 63 °F 64 °F 60 °F (2006)
Cooling Degree Days 5    
Growing Degree Days 20 (Base 50)    
Moisture  
Dew Point 65 °F    
Average Humidity 83    
Maximum Humidity 100    
Minimum Humidity 71    
Precipitation  
Precipitation 0.00 in 0.08 in - ()
Sea Level Pressure  
Sea Level Pressure 29.93 in    
Wind  
Wind Speed 6 mph ()    
Max Wind Speed 16 mph    
Max Gust Speed -    
Visibility 7.1 miles    
Events Rain , Hail , Thunderstorm    
Averages and records for this station are not official NWS values.
T = Trace of Precipitation, MM = Missing Value Source: Averaged Metar Reports

Daily Weather History Graph

Daily Weather History Graph

Search for Another Location

Airport or City:

Trip Planner

Search our weather history database for the weather conditions in past years. The results will help you decide how hot, cold, wet, or windy it might be!

Date:

Astronomy

Nov. 23, 2010 Rise Set
Actual Time 5:34 AM CST 5:11 PM CST
Civil Twilight 5:12 AM CST 5:34 PM CST
Nautical Twilight 4:46 AM CST 6:00 PM CST
Astronomical Twilight 4:20 AM CST 6:25 PM CST
Moon 7:07 PM CST (11/23) 7:14 AM CST (11/23)
Length of Visible Light 12h 22m
Length of Day
11h 37m
Waning Gibbous, 96% of the Moon is Illuminated
Nov 23
Waning Gibbous
Nov 28
Last Quarter
Dec 5
New
Dec 13
First Quarter
Dec 21
Full

Hourly Weather History & Observations

Time (CST) Temp. Dew Point Humidity Pressure Visibility Wind Dir Wind Speed Gust Speed Precip Events Conditions
12:00 AM 66 °F 66 °F 100% 29.81 in 12 mi ESE 1.2 mph - - Rain Light Rain
12:00 AM 66.2 °F 66.2 °F 100% 29.98 in 6.2 mi Variable 2.3 mph - N/A Rain Light Rain
1:00 AM 68.0 °F 64.4 °F 88% 29.97 in 6.2 mi ESE 8.1 mph - N/A   Mostly Cloudy
3:35 AM 68.0 °F 64.4 °F 88% - 6.2 mi East 4.6 mph - N/A   Mostly Cloudy
4:00 AM 66.2 °F 64.4 °F 94% 29.95 in 6.2 mi Calm Calm - N/A   Mostly Cloudy
4:27 AM 69.8 °F 64.4 °F 83% 29.95 in 6.2 mi East 8.1 mph - N/A   Mostly Cloudy
5:00 AM 69.8 °F 64.4 °F 83% 29.95 in 6.2 mi SE 9.2 mph - N/A   Mostly Cloudy
6:00 AM 68 °F 64 °F 85% 29.82 in 12 mi East 5.8 mph - -   Overcast
6:00 AM 68.0 °F 64.4 °F 88% 29.96 in 6.2 mi East 5.8 mph - N/A   Mostly Cloudy
7:00 AM 69.8 °F 64.4 °F 83% 29.97 in 6.2 mi ESE 9.2 mph - N/A   Mostly Cloudy
8:00 AM 73.4 °F 66.2 °F 78% 29.98 in 6.2 mi SE 16.1 mph - N/A   Mostly Cloudy
9:00 AM 75.2 °F 66.2 °F 73% 29.98 in 6.2 mi SE 11.5 mph - N/A   Mostly Cloudy
10:00 AM 73.4 °F 66.2 °F 78% 29.98 in 6.2 mi ESE 11.5 mph - N/A   Mostly Cloudy
11:00 AM 77.0 °F 68.0 °F 74% 29.97 in 6.2 mi South 4.6 mph - N/A   Mostly Cloudy
12:00 PM 75.2 °F 66.2 °F 73% 29.95 in 6.2 mi SE 12.7 mph - N/A Rain Light Rain
1:00 PM 73.4 °F 68.0 °F 83% 29.94 in 6.2 mi ESE 6.9 mph - N/A   Mostly Cloudy
2:00 PM 69.8 °F 66.2 °F 88% 29.92 in 6.2 mi SE 8.1 mph - N/A Rain Light Rain
3:00 PM 70 °F 68 °F 91% 29.75 in 9 mi SE 5.8 mph - - Rain Light Drizzle
3:00 PM 69.8 °F 68.0 °F 94% 29.91 in 6.2 mi SE 5.8 mph - N/A   Drizzle
4:00 PM 71.6 °F 68.0 °F 88% 29.90 in 6.2 mi ENE 3.5 mph - N/A   Mostly Cloudy
5:00 PM 69.8 °F 62.6 °F 78% 29.91 in 6.2 mi SE 9.2 mph - N/A   Mostly Cloudy
6:00 PM 70 °F 63 °F 71% 29.79 in 12 mi ESE 8.1 mph - - Hail , Thunderstorm Heavy Thunderstorms with Hail
6:00 PM 69.8 °F 62.6 °F 78% 29.91 in - ESE 8.1 mph - N/A   Clear
7:00 PM 69.8 °F 62.6 °F 78% 29.95 in - ESE 10.4 mph - N/A   Clear
8:00 PM 69.8 °F 62.6 °F 78% 29.97 in - ESE 9.2 mph - N/A   Clear
9:00 PM 69.8 °F 62.6 °F 78% 29.98 in - SE 8.1 mph - N/A   Clear
10:00 PM 69.8 °F 62.6 °F 78% 29.99 in - SE 9.2 mph - N/A   Clear
11:00 PM 69.8 °F 62.6 °F 78% 29.98 in - SE 6.9 mph - N/A   Clear